This is the latest recevied weather packets stored in our database for station/object AJ5AG. If no packets are shown the sender has not sent any weather packets the latest 10 day(s).
| Time | Temp. | Humidity | Pressure | Rain* | Wind** | Luminosity | Snow |
|---|---|---|---|---|---|---|---|
| 1778006136 | 28.33° C | 74% | 1010.9 hPa | 0 mm | - | 446 W/m² | - |
| 1778005833 | 27.78° C | 75% | 1011 hPa | 0 mm | - | 367 W/m² | - |
| 1778005529 | 27.22° C | 78% | 1011.2 hPa | 0 mm | - | 500 W/m² | - |
| 1778005226 | 27.22° C | 78% | 1011.3 hPa | 0 mm | - | 150 W/m² | - |
| 1778004923 | 27.22° C | 76% | 1011.3 hPa | 0 mm | - | 135 W/m² | - |
| 1778004621 | 27.78° C | 76% | 1011.5 hPa | 0 mm | - | 141 W/m² | - |
| 1778004316 | 27.22° C | 75% | 1011.3 hPa | 0 mm | - | 345 W/m² | - |
| 1778004015 | 26.67° C | 79% | 1011.5 hPa | 0 mm | - | 362 W/m² | - |
| 1778003709 | 26.67° C | 81% | 1011.5 hPa | 0 mm | - | 132 W/m² | - |
| 1778003406 | 26.67° C | 79% | 1011.5 hPa | 0 mm | - | 108 W/m² | - |
| 1778003103 | 27.22° C | 78% | 1011.4 hPa | 0 mm | - | 77 W/m² | - |
| 1778002799 | 27.22° C | 77% | 1011.7 hPa | 0 mm | - | 257 W/m² | - |
| 1778002495 | 27.22° C | 78% | 1011.7 hPa | 0 mm | - | 167 W/m² | - |
| 1778002192 | 26.67° C | 79% | 1011.7 hPa | 0 mm | - | 276 W/m² | - |
| 1778001891 | 26.11° C | 80% | 1011.8 hPa | 0 mm | - | 336 W/m² | - |
| 1778001590 | 26.11° C | 80% | 1011.7 hPa | 0 mm | - | 144 W/m² | - |
| 1778001287 | 26.11° C | 80% | 1011.7 hPa | 0 mm | - | 122 W/m² | - |
| 1778000984 | 26.67° C | 80% | 1011.8 hPa | 0 mm | - | 123 W/m² | - |
| 1778000681 | 26.67° C | 80% | 1011.6 hPa | 0 mm | - | 78 W/m² | - |
| 1778000376 | 26.67° C | 80% | 1011.7 hPa | 0 mm | - | 210 W/m² | - |
| 1778000072 | 26.11° C | 80% | 1011.7 hPa | 0 mm | - | 275 W/m² | - |
| 1777999768 | 26.11° C | 80% | 1011.9 hPa | 0 mm | - | 164 W/m² | - |
| 1777999464 | 26.11° C | 80% | 1011.9 hPa | 0 mm | - | 217 W/m² | - |
| 1777999162 | 26.11° C | 81% | 1011.8 hPa | 0 mm | - | 239 W/m² | - |
| 1777998861 | 25.56° C | 82% | 1011.8 hPa | 0 mm | - | 188 W/m² | - |
* Rain latest hour (hover to see other rain measurements)
** Current wind speed in m/s (hover to see current wind gust speed)